• In Belarus
  • List of Countries
  • For 7 days
  • Water Temperature
  • Weather Map
  • Weather Widgets
  • user-avatar
    Login

    Hourly Weather Canillo

    Today, 28 February, Friday

    Time Temperature Precipitation Wind Pressure Humidity
    00:00 +1°C° 0.2 mm 2 mps 617 mmHg 96%
    01:00 +1°C° 0.3 mm 2 mps 617 mmHg 96%
    02:00 +1°C° 0.3 mm 2 mps 617 mmHg 95%
    03:00 +2°C° 0.3 mm 1 mps 617 mmHg 95%
    04:00 +2°C° 0.2 mm 1 mps 617 mmHg 95%
    05:00 +2°C° 0.2 mm 1 mps 617 mmHg 95%
    06:00 +2°C° 0.2 mm 1 mps 618 mmHg 95%
    07:00 +3°C° 0 mm 1 mps 618 mmHg 90%
    08:00 +4°C° 0 mm 1 mps 619 mmHg 85%
    09:00 +5°C° 0 mm 0 mps 619 mmHg 81%
    10:00 +7°C° 0 mm 1 mps 620 mmHg 75%
    11:00 +8°C° 0 mm 1 mps 620 mmHg 70%
    12:00 +10°C° 0 mm 1 mps 621 mmHg 65%
    13:00 +9°C° 0 mm 1 mps 620 mmHg 66%
    14:00 +9°C° 0 mm 1 mps 620 mmHg 67%
    15:00 +9°C° 0 mm 1 mps 619 mmHg 68%
    16:00 +8°C° 0 mm 1 mps 618 mmHg 76%
    17:00 +5°C° 0 mm 2 mps 617 mmHg 84%
    18:00 +3°C° 0 mm 2 mps 617 mmHg 92%
    19:00 +3°C° 0 mm 2 mps 616 mmHg 92%
    20:00 +3°C° 0 mm 2 mps 616 mmHg 92%
    21:00 +3°C° 0 mm 2 mps 615 mmHg 92%
    22:00 +2°C° 0 mm 2 mps 615 mmHg 91%
    23:00 +1°C° 0 mm 3 mps 614 mmHg 89%

    Tomorrow, 29 February, Saturday

    Time Temperature Precipitation Wind Pressure Humidity
    00:00 +1°C° 0 mm 3 mps 614 mmHg 88%
    01:00 +1°C° 0 mm 3 mps 613 mmHg 87%
    02:00 0°C° 0 mm 3 mps 612 mmHg 87%
    03:00 0°C° 0 mm 3 mps 611 mmHg 86%
    04:00 0°C° 0 mm 3 mps 611 mmHg 85%
    05:00 0°C° 0 mm 3 mps 610 mmHg 84%
    06:00 0°C° 0 mm 3 mps 610 mmHg 83%
    07:00 +1°C° 0 mm 3 mps 611 mmHg 79%
    08:00 +2°C° 0 mm 3 mps 611 mmHg 76%
    09:00 +3°C° 0 mm 3 mps 611 mmHg 73%
    10:00 +4°C° 0 mm 3 mps 612 mmHg 68%
    11:00 +7°C° 0 mm 3 mps 612 mmHg 62%
    12:00 +8°C° 0 mm 3 mps 613 mmHg 57%
    13:00 +7°C° 0.1 mm 3 mps 612 mmHg 64%
    14:00 +6°C° 0.1 mm 2 mps 612 mmHg 71%
    15:00 +5°C° 0.1 mm 2 mps 611 mmHg 78%
    16:00 +4°C° 0.1 mm 2 mps 611 mmHg 83%
    17:00 +3°C° 0.1 mm 2 mps 611 mmHg 88%
    18:00 +3°C° 0.1 mm 1 mps 611 mmHg 93%
    19:00 +2°C° 0.1 mm 1 mps 611 mmHg 94%
    20:00 +2°C° 0.1 mm 1 mps 611 mmHg 94%
    21:00 +2°C° 0.1 mm 1 mps 612 mmHg 95%
    22:00 +1°C° 0 mm 1 mps 611 mmHg 95%
    23:00 +1°C° 0 mm 1 mps 611 mmHg 96%

    Day after tomorrow, 1 March, Sunday

    Time Temperature Precipitation Wind Pressure Humidity
    00:00 +1°C° 0 mm 1 mps 611 mmHg 96%
    01:00 0°C° 0 mm 1 mps 611 mmHg 96%
    02:00 0°C° 0 mm 1 mps 611 mmHg 96%
    03:00 0°C° 0 mm 1 mps 610 mmHg 95%
    04:00 0°C° 0 mm 1 mps 610 mmHg 95%
    05:00 -1°C° 0 mm 1 mps 610 mmHg 94%
    06:00 -1°C° 0 mm 1 mps 609 mmHg 93%
    07:00 -2°C° 0 mm 2 mps 610 mmHg 88%
    08:00 -1°C° 0 mm 2 mps 610 mmHg 82%
    09:00 0°C° 0 mm 3 mps 610 mmHg 77%
    10:00 +1°C° 0 mm 3 mps 610 mmHg 74%
    11:00 +1°C° 0 mm 3 mps 610 mmHg 72%
    12:00 +2°C° 0 mm 3 mps 610 mmHg 69%
    13:00 +2°C° 0.7 mm 3 mps 609 mmHg 75%
    14:00 +1°C° 0.7 mm 3 mps 609 mmHg 82%
    15:00 0°C° 0.7 mm 3 mps 608 mmHg 88%
    16:00 +1°C° 0.8 mm 2 mps 608 mmHg 90%
    17:00 -1°C° 0.8 mm 2 mps 608 mmHg 93%
    18:00 0°C° 0.8 mm 1 mps 608 mmHg 95%
    19:00 0°C° 0.1 mm 1 mps 609 mmHg 94%
    20:00 -1°C° 0.1 mm 1 mps 609 mmHg 93%
    21:00 -1°C° 0.1 mm 1 mps 609 mmHg 92%
    22:00 -1°C° 0 mm 1 mps 609 mmHg 90%
    23:00 -3°C° 0 mm 2 mps 609 mmHg 88%

    2 March, Monday

    Time Temperature Precipitation Wind Pressure Humidity
    00:00 -3°C° 0 mm 2 mps 608 mmHg 86%
    01:00 -3°C° 0 mm 2 mps 608 mmHg 87%
    02:00 -3°C° 0 mm 2 mps 608 mmHg 88%
    03:00 -2°C° 0 mm 2 mps 607 mmHg 88%
    04:00 -2°C° 0.2 mm 2 mps 607 mmHg 90%
    05:00 -3°C° 0.2 mm 2 mps 606 mmHg 91%
    06:00 -3°C° 0.2 mm 2 mps 606 mmHg 93%
    07:00 -2°C° 0 mm 2 mps 606 mmHg 89%
    08:00 -1°C° 0 mm 2 mps 606 mmHg 86%
    09:00 +2°C° 0 mm 1 mps 607 mmHg 83%
    10:00 +2°C° 0 mm 2 mps 607 mmHg 81%
    11:00 +2°C° 0 mm 2 mps 607 mmHg 79%
    12:00 +3°C° 0 mm 2 mps 607 mmHg 77%
    13:00 +2°C° 1.6 mm 2 mps 606 mmHg 81%
    14:00 +1°C° 1.6 mm 2 mps 606 mmHg 86%
    15:00 -1°C° 1.6 mm 2 mps 605 mmHg 90%
    16:00 -2°C° 1.4 mm 2 mps 605 mmHg 91%
    17:00 -4°C° 1.4 mm 3 mps 606 mmHg 93%
    18:00 -5°C° 1.4 mm 3 mps 606 mmHg 94%
    19:00 -5°C° 0.6 mm 3 mps 606 mmHg 94%
    20:00 -6°C° 0.6 mm 3 mps 607 mmHg 93%
    21:00 -8°C° 0.6 mm 4 mps 607 mmHg 93%
    22:00 -7°C° 0.3 mm 3 mps 608 mmHg 93%
    23:00 -7°C° 0.3 mm 3 mps 608 mmHg 93%

    3 March, Tuesday

    Time Temperature Precipitation Wind Pressure Humidity
    00:00 -8°C° 0.3 mm 3 mps 609 mmHg 93%
    01:00 -8°C° 0.2 mm 3 mps 609 mmHg 92%
    02:00 -8°C° 0.2 mm 3 mps 609 mmHg 92%
    03:00 -7°C° 0.2 mm 2 mps 609 mmHg 92%
    04:00 -8°C° 0 mm 2 mps 609 mmHg 91%
    05:00 -8°C° 0 mm 2 mps 609 mmHg 90%
    06:00 -9°C° 0 mm 2 mps 609 mmHg 90%
    07:00 -7°C° 0 mm 2 mps 609 mmHg 85%
    08:00 -5°C° 0 mm 2 mps 610 mmHg 80%
    09:00 -4°C° 0 mm 2 mps 611 mmHg 74%
    10:00 -1°C° 0 mm 1 mps 611 mmHg 72%
    11:00 +1°C° 0 mm 1 mps 611 mmHg 70%
    12:00 +2°C° 0 mm 1 mps 612 mmHg 68%
    13:00 +2°C° 0.1 mm 1 mps 611 mmHg 71%
    14:00 +2°C° 0.1 mm 1 mps 611 mmHg 74%
    15:00 +3°C° 0.1 mm 1 mps 611 mmHg 78%
    16:00 +1°C° 0.4 mm 1 mps 611 mmHg 82%
    17:00 0°C° 0.4 mm 1 mps 610 mmHg 87%
    18:00 -3°C° 0.4 mm 2 mps 610 mmHg 92%
    19:00 -3°C° 0.3 mm 2 mps 611 mmHg 93%
    20:00 -3°C° 0.3 mm 2 mps 611 mmHg 94%
    21:00 -3°C° 0.3 mm 2 mps 612 mmHg 95%
    22:00 -4°C° 0 mm 2 mps 612 mmHg 93%
    23:00 -4°C° 0 mm 2 mps 612 mmHg 92%

    4 March, Wednesday

    Time Temperature Precipitation Wind Pressure Humidity
    00:00 -4°C° 0 mm 2 mps 612 mmHg 91%
    01:00 -4°C° 0 mm 2 mps 612 mmHg 91%
    02:00 -4°C° 0 mm 2 mps 612 mmHg 91%
    03:00 -4°C° 0 mm 2 mps 612 mmHg 90%
    04:00 -4°C° 0 mm 2 mps 612 mmHg 86%
    05:00 -4°C° 0 mm 2 mps 612 mmHg 82%
    06:00 -4°C° 0 mm 2 mps 612 mmHg 77%
    07:00 -3°C° 0 mm 2 mps 613 mmHg 78%
    08:00 +1°C° 0 mm 1 mps 614 mmHg 79%
    09:00 +3°C° 0 mm 1 mps 615 mmHg 80%
    10:00 +4°C° 0 mm 1 mps 615 mmHg 82%
    11:00 +5°C° 0 mm 1 mps 615 mmHg 84%
    12:00 +6°C° 0 mm 1 mps 615 mmHg 86%
    13:00 +6°C° 0 mm 1 mps 615 mmHg 86%
    14:00 +6°C° 0 mm 1 mps 615 mmHg 86%
    15:00 +6°C° 0 mm 1 mps 614 mmHg 86%
    16:00 +5°C° 0 mm 1 mps 614 mmHg 88%
    17:00 +4°C° 0 mm 1 mps 613 mmHg 89%
    18:00 +3°C° 0 mm 1 mps 613 mmHg 91%
    19:00 +2°C° 0 mm 2 mps 612 mmHg 91%
    20:00 +1°C° 0 mm 2 mps 612 mmHg 90%
    21:00 +1°C° 0 mm 2 mps 612 mmHg 90%
    22:00 +1°C° 0 mm 2 mps 611 mmHg 91%
    23:00 +1°C° 0 mm 2 mps 611 mmHg 92%
    Show more